This demonstration page uses our WeatherBlox Daily Observations layout. Learn more.

Left ArrowRight Arrow

34.02893, -84.19858

Hourly Observations for December 19, 2018

Temp ( °F °C ) Dew Point ( °F °C ) Humidity (%) Winds ( mph kmh ) Pressure ( in mb ) Visibility ( mi km ) Precip ( " mm )
12:53 am 00:53 Clear 41 5 35 1.7 79 79 Calm 30.10 1019 7 11 0.00 0.00
1:53 am 01:53 Clear 38 3.3 33 0.6 83 83 Calm 30.11 1020 8 13 0.00 0.00
2:53 am 02:53 Clear 40 4.4 34 1.1 79 79 Calm 30.11 1020 8 13 0.00 0.00
3:53 am 03:53 Clear 41 5 35 1.7 79 79 Calm 30.10 1019 8 13 0.00 0.00
4:53 am 04:53 Clear 42 5.6 36 2.2 79 79 NE 3 6 30.10 1019 7 11 0.00 0.00
5:53 am 05:53 Clear 43 6.1 36 2.2 76 76 VRB 3 6 30.12 1020 7 11 0.00 0.00
6:53 am 06:53 Clear 42 5.6 35 1.7 76 76 Calm 30.13 1020 8 13 0.00 0.00
7:53 am 07:53 Sunny 42 5.6 35 1.7 76 76 E 3 6 30.15 1021 7 11 0.00 0.00
8:53 am 08:53 Sunny 43 6.1 36 2.2 76 76 Calm 30.16 1021 7 11 0.00 0.00
9:53 am 09:53 Sunny 45 7.2 36 2.2 71 71 Calm 30.17 1022 7 11 0.00 0.00
10:53 am 10:53 Sunny 49 9.4 36 2.2 61 61 E 6 9 30.14 1021 8 13 0.00 0.00
11:53 am 11:53 Sunny 52 11.1 38 3.3 59 59 VRB 3 6 30.10 1019 8 13 0.00 0.00
12:53 pm 12:53 Sunny 54 12.2 39 3.9 57 57 VRB 3 6 30.05 1018 9 14 0.00 0.00
1:53 pm 13:53 Sunny 55 12.8 39 3.9 55 55 E 6 9 30.02 1017 9 14 0.00 0.00
2:53 pm 14:53 Sunny 56 13.3 39 3.9 53 53 VRB 7 11 30.00 1016 9 14 0.00 0.00
3:53 pm 15:53 Sunny 56 13.3 39 3.9 53 53 ESE 7 11 29.99 1016 9 14 0.00 0.00
4:53 pm 16:53 Sunny 55 12.8 40 4.4 57 57 VRB 3 6 29.99 1016 8 13 0.00 0.00
5:53 pm 17:53 Clear 53 11.7 41 5 64 64 VRB 3 6 30.01 1016 9 14 0.00 0.00
6:53 pm 18:53 Clear 52 11.1 41 5 66 66 VRB 5 7 30.01 1016 9 14 0.00 0.00
7:53 pm 19:53 Clear 52 11.1 41 5 66 66 undefined N/A 30.00 1016 9 14 0.00 0.00
8:53 pm 20:53 Mostly Clear 51 10.6 40 4.4 66 66 VRB 6 9 29.98 1015 9 14 0.00 0.00
9:53 pm 21:53 Mostly Cloudy 50 10 39 3.9 66 66 VRB 5 7 29.97 1015 10 16 0.00 0.00
10:53 pm 22:53 Cloudy 50 10 38 3.3 63 63 VRB 3 6 29.97 1015 10 16 0.00 0.00
11:07 pm 23:07 Cloudy 50 10 38 3.3 63 63 VRB 6 9 29.97 1015 10 16 0.00 0.00
11:53 pm 23:53 Cloudy 50 10 38 3.3 63 63 VRB 6 9 29.95 1014 10 16 0.00 0.00

Powered by AerisWeather